Time,TemperatureF,DewpointF,PressureIn,WindDirection,WindDirectionDegrees,WindSpeedMPH,WindSpeedGustMPH,Humidity,HourlyPrecipIn,Conditions,Clouds,dailyrainin,SoftwareType,DateUTC
2013-08-26 00:01:00,67.0,57.6,30.21,SW,225,1.0,5.0,72,0.00,,,0.00,Weather View 32 v70,2013-08-26 04:01:00,
2013-08-26 00:02:00,67.0,57.6,30.21,West,270,0.0,5.0,72,0.00,,,0.00,Weather View 32 v70,2013-08-26 04:02:00,
2013-08-26 00:07:00,68.0,59.0,30.21,WSW,247,2.0,5.0,73,0.00,,,0.00,Weather View 32 v70,2013-08-26 04:07:00,
2013-08-26 00:12:00,68.0,59.0,30.21,WSW,247,1.0,5.0,73,0.00,,,0.00,Weather View 32 v70,2013-08-26 04:12:00,
2013-08-26 00:17:00,67.0,58.0,30.21,SW,225,1.0,5.0,73,0.00,,,0.00,Weather View 32 v70,2013-08-26 04:17:00,
2013-08-26 00:22:00,67.0,58.4,30.21,SW,225,1.0,5.0,74,0.00,,,0.00,Weather View 32 v70,2013-08-26 04:22:00,
2013-08-26 00:27:00,67.0,58.4,30.20,SW,225,2.0,5.0,74,0.00,,,0.00,Weather View 32 v70,2013-08-26 04:27:00,
2013-08-26 00:32:00,67.0,58.4,30.20,SW,225,1.0,5.0,74,0.00,,,0.00,Weather View 32 v70,2013-08-26 04:32:00,
2013-08-26 00:37:00,67.0,58.8,30.20,SW,225,0.0,4.0,75,0.00,,,0.00,Weather View 32 v70,2013-08-26 04:37:00,
2013-08-26 00:42:00,67.0,58.8,30.20,SW,225,0.0,4.0,75,0.00,,,0.00,Weather View 32 v70,2013-08-26 04:42:00,
2013-08-26 00:47:00,67.0,58.8,30.21,SW,225,0.0,4.0,75,0.00,,,0.00,Weather View 32 v70,2013-08-26 04:47:00,
2013-08-26 00:52:00,67.0,58.8,30.21,NW,315,1.0,6.0,75,0.00,,,0.00,Weather View 32 v70,2013-08-26 04:52:00,
2013-08-26 00:57:00,67.0,59.5,30.21,NW,315,0.0,6.0,77,0.00,,,0.00,Weather View 32 v70,2013-08-26 04:57:00,
2013-08-26 01:02:00,66.0,58.2,30.21,SSE,157,3.0,6.0,76,0.00,,,0.00,Weather View 32 v70,2013-08-26 05:02:00,
2013-08-26 01:07:00,66.0,58.6,30.20,SSE,157,0.0,6.0,77,0.00,,,0.00,Weather View 32 v70,2013-08-26 05:07:00,
2013-08-26 01:12:00,66.0,58.6,30.20,SSE,157,0.0,6.0,77,0.00,,,0.00,Weather View 32 v70,2013-08-26 05:12:00,
2013-08-26 01:17:00,66.0,59.3,30.21,SSE,157,0.0,6.0,79,0.00,,,0.00,Weather View 32 v70,2013-08-26 05:17:00,
2013-08-26 01:22:00,66.0,59.3,30.21,SSE,157,0.0,6.0,79,0.00,,,0.00,Weather View 32 v70,2013-08-26 05:22:00,
2013-08-26 01:27:00,66.0,59.3,30.20,SSE,157,0.0,6.0,79,0.00,,,0.00,Weather View 32 v70,2013-08-26 05:27:00,
2013-08-26 01:32:00,66.0,59.3,30.20,SSE,157,0.0,6.0,79,0.00,,,0.00,Weather View 32 v70,2013-08-26 05:32:00,
2013-08-26 01:37:00,66.0,59.3,30.20,SSE,157,0.0,6.0,79,0.00,,,0.00,Weather View 32 v70,2013-08-26 05:37:00,
2013-08-26 01:42:00,66.0,59.3,30.20,SSE,157,0.0,6.0,79,0.00,,,0.00,Weather View 32 v70,2013-08-26 05:42:00,
2013-08-26 01:47:00,66.0,59.3,30.20,SSE,157,0.0,6.0,79,0.00,,,0.00,Weather View 32 v70,2013-08-26 05:47:00,
2013-08-26 01:52:00,66.0,59.3,30.20,SSE,157,0.0,3.0,79,0.00,,,0.00,Weather View 32 v70,2013-08-26 05:52:00,
2013-08-26 01:58:00,66.0,59.6,30.19,SW,225,0.0,4.0,80,0.00,,,0.00,Weather View 32 v70,2013-08-26 05:58:00,
2013-08-26 02:03:00,66.0,59.3,30.19,NW,315,0.0,7.0,79,0.00,,,0.00,Weather View 32 v70,2013-08-26 06:03:00,
2013-08-26 02:08:00,66.0,59.3,30.20,NW,315,0.0,7.0,79,0.00,,,0.00,Weather View 32 v70,2013-08-26 06:08:00,
2013-08-26 02:13:00,66.0,59.3,30.20,NNW,337,0.0,7.0,79,0.00,,,0.00,Weather View 32 v70,2013-08-26 06:13:00,
2013-08-26 02:18:00,66.0,59.3,30.19,WNW,292,1.0,7.0,79,0.00,,,0.00,Weather View 32 v70,2013-08-26 06:18:00,
2013-08-26 02:23:00,66.0,59.3,30.19,South,180,0.0,7.0,79,0.00,,,0.00,Weather View 32 v70,2013-08-26 06:23:00,
2013-08-26 02:28:00,66.0,59.3,30.19,South,180,0.0,7.0,79,0.00,,,0.00,Weather View 32 v70,2013-08-26 06:28:00,
2013-08-26 02:33:00,66.0,58.9,30.19,South,180,1.0,7.0,78,0.00,,,0.00,Weather View 32 v70,2013-08-26 06:33:00,
2013-08-26 02:38:00,66.0,58.9,30.18,South,180,0.0,7.0,78,0.00,,,0.00,Weather View 32 v70,2013-08-26 06:38:00,
2013-08-26 02:43:00,66.0,58.9,30.18,South,180,0.0,7.0,78,0.00,,,0.00,Weather View 32 v70,2013-08-26 06:43:00,
2013-08-26 02:48:00,66.0,58.9,30.18,South,180,0.0,7.0,78,0.00,,,0.00,Weather View 32 v70,2013-08-26 06:48:00,
2013-08-26 02:53:00,66.0,59.3,30.18,South,180,0.0,7.0,79,0.00,,,0.00,Weather View 32 v70,2013-08-26 06:53:00,
2013-08-26 02:58:00,66.0,58.9,30.18,South,180,1.0,7.0,78,0.00,,,0.00,Weather View 32 v70,2013-08-26 06:58:00,
2013-08-26 03:03:00,66.0,58.9,30.18,South,180,0.0,6.0,78,0.00,,,0.00,Weather View 32 v70,2013-08-26 07:03:00,
2013-08-26 03:08:00,66.0,58.6,30.17,SW,225,2.0,6.0,77,0.00,,,0.00,Weather View 32 v70,2013-08-26 07:08:00,
2013-08-26 03:13:00,66.0,58.6,30.17,South,180,1.0,6.0,77,0.00,,,0.00,Weather View 32 v70,2013-08-26 07:13:00,
2013-08-26 03:18:00,66.0,58.6,30.17,South,180,0.0,4.0,77,0.00,,,0.00,Weather View 32 v70,2013-08-26 07:18:00,
2013-08-26 03:23:00,66.0,58.2,30.17,South,180,2.0,4.0,76,0.00,,,0.00,Weather View 32 v70,2013-08-26 07:23:00,
2013-08-26 03:28:00,66.0,58.2,30.16,East,90,0.0,4.0,76,0.00,,,0.00,Weather View 32 v70,2013-08-26 07:28:00,
2013-08-26 03:33:00,67.0,58.8,30.16,East,90,0.0,4.0,75,0.00,,,0.00,Weather View 32 v70,2013-08-26 07:33:00,
2013-08-26 03:38:00,67.0,59.2,30.15,East,90,0.0,4.0,76,0.00,,,0.00,Weather View 32 v70,2013-08-26 07:38:00,
2013-08-26 03:43:00,67.0,59.2,30.15,East,90,0.0,4.0,76,0.00,,,0.00,Weather View 32 v70,2013-08-26 07:43:00,
2013-08-26 03:48:00,67.0,59.2,30.15,South,180,0.0,4.0,76,0.00,,,0.00,Weather View 32 v70,2013-08-26 07:48:00,
2013-08-26 03:53:00,67.0,59.2,30.15,South,180,0.0,4.0,76,0.00,,,0.00,Weather View 32 v70,2013-08-26 07:53:00,
2013-08-26 03:58:00,67.0,58.8,30.15,South,180,0.0,4.0,75,0.00,,,0.00,Weather View 32 v70,2013-08-26 07:58:00,
2013-08-26 04:03:00,67.0,59.2,30.15,South,180,0.0,4.0,76,0.00,,,0.00,Weather View 32 v70,2013-08-26 08:03:00,
2013-08-26 04:08:00,66.0,58.2,30.15,South,180,1.0,4.0,76,0.00,,,0.00,Weather View 32 v70,2013-08-26 08:08:00,
2013-08-26 04:13:00,66.0,58.2,30.15,SSW,202,2.0,3.0,76,0.00,,,0.00,Weather View 32 v70,2013-08-26 08:13:00,
2013-08-26 04:18:00,67.0,59.2,30.15,SSW,202,2.0,3.0,76,0.00,,,0.00,Weather View 32 v70,2013-08-26 08:18:00,
2013-08-26 04:23:00,67.0,58.8,30.15,SSW,202,1.0,3.0,75,0.00,,,0.00,Weather View 32 v70,2013-08-26 08:23:00,
2013-08-26 04:28:00,67.0,59.5,30.15,SSW,202,2.0,4.0,77,0.00,,,0.00,Weather View 32 v70,2013-08-26 08:28:00,
2013-08-26 04:33:00,67.0,59.2,30.15,SSW,202,2.0,4.0,76,0.00,,,0.00,Weather View 32 v70,2013-08-26 08:33:00,
2013-08-26 04:38:00,67.0,59.5,30.15,South,180,0.0,6.0,77,0.00,,,0.00,Weather View 32 v70,2013-08-26 08:38:00,
2013-08-26 04:44:00,67.0,58.8,30.15,South,180,1.0,6.0,75,0.00,,,0.00,Weather View 32 v70,2013-08-26 08:44:00,
2013-08-26 04:49:00,67.0,59.5,30.15,SSW,202,3.0,6.0,77,0.00,,,0.00,Weather View 32 v70,2013-08-26 08:49:00,
2013-08-26 04:54:00,67.0,58.8,30.14,SSW,202,1.0,6.0,75,0.00,,,0.00,Weather View 32 v70,2013-08-26 08:54:00,
2013-08-26 04:59:00,67.0,59.2,30.14,WSW,247,0.0,6.0,76,0.00,,,0.00,Weather View 32 v70,2013-08-26 08:59:00,
2013-08-26 05:04:00,67.0,59.2,30.15,WSW,247,0.0,6.0,76,0.00,,,0.00,Weather View 32 v70,2013-08-26 09:04:00,
2013-08-26 05:09:00,67.0,59.5,30.15,SW,225,0.0,6.0,77,0.00,,,0.00,Weather View 32 v70,2013-08-26 09:09:00,
2013-08-26 05:14:00,67.0,59.2,30.14,SW,225,1.0,6.0,76,0.00,,,0.00,Weather View 32 v70,2013-08-26 09:14:00,
2013-08-26 05:19:00,67.0,59.2,30.14,SW,225,1.0,6.0,76,0.00,,,0.00,Weather View 32 v70,2013-08-26 09:19:00,
2013-08-26 05:24:00,67.0,58.8,30.14,SW,225,0.0,6.0,75,0.00,,,0.00,Weather View 32 v70,2013-08-26 09:24:00,
2013-08-26 05:29:00,67.0,59.2,30.14,SW,225,0.0,6.0,76,0.00,,,0.00,Weather View 32 v70,2013-08-26 09:29:00,
2013-08-26 05:34:00,67.0,58.8,30.14,SSE,157,0.0,6.0,75,0.00,,,0.00,Weather View 32 v70,2013-08-26 09:34:00,
2013-08-26 05:39:00,67.0,59.5,30.14,SSE,157,0.0,5.0,77,0.00,,,0.00,Weather View 32 v70,2013-08-26 09:39:00,
2013-08-26 05:44:00,67.0,59.5,30.13,SSE,157,0.0,5.0,77,0.00,,,0.00,Weather View 32 v70,2013-08-26 09:44:00,
2013-08-26 05:49:00,66.0,58.6,30.13,SSE,157,0.0,5.0,77,0.00,,,0.00,Weather View 32 v70,2013-08-26 09:49:00,
2013-08-26 05:54:00,67.0,59.5,30.13,West,270,1.0,5.0,77,0.00,,,0.00,Weather View 32 v70,2013-08-26 09:54:00,
2013-08-26 05:59:00,66.0,58.9,30.13,West,270,3.0,5.0,78,0.00,,,0.00,Weather View 32 v70,2013-08-26 09:59:00,
2013-08-26 06:04:00,67.0,59.5,30.13,West,270,0.0,5.0,77,0.00,,,0.00,Weather View 32 v70,2013-08-26 10:04:00,
2013-08-26 06:09:00,67.0,59.5,30.13,West,270,3.0,6.0,77,0.00,,,0.00,Weather View 32 v70,2013-08-26 10:09:00,
2013-08-26 06:14:00,67.0,59.2,30.13,West,270,2.0,6.0,76,0.00,,,0.00,Weather View 32 v70,2013-08-26 10:14:00,
2013-08-26 06:19:00,67.0,59.5,30.13,WNW,292,1.0,6.0,77,0.00,,,0.00,Weather View 32 v70,2013-08-26 10:19:00,
2013-08-26 06:24:00,67.0,59.2,30.13,NW,315,2.0,7.0,76,0.00,,,0.00,Weather View 32 v70,2013-08-26 10:24:00,
2013-08-26 06:29:00,67.0,59.9,30.13,WNW,292,1.0,7.0,78,0.00,,,0.00,Weather View 32 v70,2013-08-26 10:29:00,
2013-08-26 06:34:00,67.0,59.9,30.13,West,270,5.0,7.0,78,0.00,,,0.00,Weather View 32 v70,2013-08-26 10:34:00,
2013-08-26 06:39:00,67.0,60.2,30.13,West,270,6.0,7.0,79,0.00,,,0.00,Weather View 32 v70,2013-08-26 10:39:00,
2013-08-26 06:44:00,67.0,60.2,30.13,WNW,292,3.0,7.0,79,0.00,,,0.00,Weather View 32 v70,2013-08-26 10:44:00,
2013-08-26 06:49:00,67.0,60.6,30.13,West,270,7.0,11.0,80,0.00,,,0.00,Weather View 32 v70,2013-08-26 10:49:00,
2013-08-26 06:54:00,67.0,60.2,30.13,NNW,337,3.0,11.0,79,0.00,,,0.00,Weather View 32 v70,2013-08-26 10:54:00,
2013-08-26 06:59:00,66.0,60.0,30.13,WNW,292,4.0,11.0,81,0.00,,,0.00,Weather View 32 v70,2013-08-26 10:59:00,
2013-08-26 07:04:00,67.0,61.0,30.13,West,270,3.0,11.0,81,0.00,,,0.00,Weather View 32 v70,2013-08-26 11:04:00,
2013-08-26 07:09:00,66.0,60.3,30.13,WSW,247,4.0,11.0,82,0.00,,,0.00,Weather View 32 v70,2013-08-26 11:09:00,
2013-08-26 07:14:00,67.0,61.0,30.13,WNW,292,1.0,11.0,81,0.00,,,0.00,Weather View 32 v70,2013-08-26 11:14:00,
2013-08-26 07:20:00,67.0,61.0,30.13,WSW,247,4.0,11.0,81,0.00,,,0.00,Weather View 32 v70,2013-08-26 11:20:00,
2013-08-26 07:25:00,67.0,60.6,30.13,NW,315,6.0,11.0,80,0.00,,,0.00,Weather View 32 v70,2013-08-26 11:25:00,
2013-08-26 07:30:00,67.0,61.0,30.13,West,270,5.0,11.0,81,0.00,,,0.00,Weather View 32 v70,2013-08-26 11:30:00,
2013-08-26 07:35:00,67.0,61.0,30.12,West,270,3.0,11.0,81,0.00,,,0.00,Weather View 32 v70,2013-08-26 11:35:00,
2013-08-26 07:40:00,67.0,61.0,30.12,WNW,292,4.0,11.0,81,0.00,,,0.00,Weather View 32 v70,2013-08-26 11:40:00,
2013-08-26 07:45:00,67.0,61.0,30.13,WNW,292,1.0,11.0,81,0.00,,,0.00,Weather View 32 v70,2013-08-26 11:45:00,
2013-08-26 07:50:00,66.0,60.0,30.13,West,270,0.0,10.0,81,0.00,,,0.00,Weather View 32 v70,2013-08-26 11:50:00,
2013-08-26 07:55:00,67.0,61.0,30.12,WNW,292,3.0,10.0,81,0.00,,,0.00,Weather View 32 v70,2013-08-26 11:55:00,
2013-08-26 08:00:00,67.0,61.6,30.12,SW,225,1.0,9.0,83,0.00,,,0.00,Weather View 32 v70,2013-08-26 12:00:00,
2013-08-26 08:05:00,66.0,60.7,30.12,NW,315,0.0,9.0,83,0.00,,,0.00,Weather View 32 v70,2013-08-26 12:05:00,
2013-08-26 08:10:00,66.0,60.7,30.12,SW,225,1.0,9.0,83,0.00,,,0.00,Weather View 32 v70,2013-08-26 12:10:00,
2013-08-26 08:15:00,66.0,60.3,30.13,West,270,3.0,9.0,82,0.00,,,0.00,Weather View 32 v70,2013-08-26 12:15:00,
2013-08-26 08:20:00,66.0,60.3,30.13,West,270,7.0,9.0,82,0.00,,,0.00,Weather View 32 v70,2013-08-26 12:20:00,
2013-08-26 08:25:00,66.0,60.3,30.13,WNW,292,6.0,9.0,82,0.00,,,0.00,Weather View 32 v70,2013-08-26 12:25:00,
2013-08-26 08:30:00,66.0,60.0,30.13,West,270,0.0,9.0,81,0.00,,,0.00,Weather View 32 v70,2013-08-26 12:30:00,
2013-08-26 08:35:00,67.0,61.0,30.12,WNW,292,3.0,9.0,81,0.00,,,0.00,Weather View 32 v70,2013-08-26 12:35:00,
2013-08-26 08:40:00,66.0,60.3,30.12,West,270,1.0,9.0,82,0.00,,,0.00,Weather View 32 v70,2013-08-26 12:40:00,
2013-08-26 08:45:00,67.0,61.0,30.11,West,270,1.0,9.0,81,0.00,,,0.00,Weather View 32 v70,2013-08-26 12:45:00,
2013-08-26 08:50:00,66.0,60.3,30.11,WSW,247,0.0,9.0,82,0.00,,,0.00,Weather View 32 v70,2013-08-26 12:50:00,
2013-08-26 08:55:00,67.0,61.0,30.10,WSW,247,0.0,9.0,81,0.00,,,0.00,Weather View 32 v70,2013-08-26 12:55:00,
2013-08-26 09:00:00,67.0,60.6,30.10,SSE,157,4.0,9.0,80,0.00,,,0.00,Weather View 32 v70,2013-08-26 13:00:00,
2013-08-26 09:05:00,67.0,61.0,30.09,North,360,6.0,9.0,81,0.00,,,0.00,Weather View 32 v70,2013-08-26 13:05:00,
2013-08-26 09:10:00,67.0,60.6,30.09,NNW,337,3.0,9.0,80,0.00,,,0.00,Weather View 32 v70,2013-08-26 13:10:00,
2013-08-26 09:15:00,67.0,61.0,30.10,South,180,3.0,8.0,81,0.00,,,0.00,Weather View 32 v70,2013-08-26 13:15:00,
2013-08-26 09:20:00,67.0,61.0,30.10,WSW,247,0.0,8.0,81,0.00,,,0.00,Weather View 32 v70,2013-08-26 13:20:00,
2013-08-26 09:25:00,67.0,61.3,30.09,SW,225,0.0,8.0,82,0.00,,,0.00,Weather View 32 v70,2013-08-26 13:25:00,
2013-08-26 09:30:00,67.0,61.0,30.09,WNW,292,3.0,7.0,81,0.00,,,0.00,Weather View 32 v70,2013-08-26 13:30:00,
2013-08-26 09:35:00,67.0,61.0,30.09,WSW,247,0.0,7.0,81,0.00,,,0.00,Weather View 32 v70,2013-08-26 13:35:00,
2013-08-26 09:40:00,67.0,61.0,30.09,NW,315,5.0,7.0,81,0.00,,,0.00,Weather View 32 v70,2013-08-26 13:40:00,
2013-08-26 09:45:00,67.0,60.6,30.09,WSW,247,3.0,7.0,80,0.00,,,0.00,Weather View 32 v70,2013-08-26 13:45:00,
2013-08-26 09:50:00,67.0,61.0,30.09,WSW,247,0.0,7.0,81,0.00,,,0.00,Weather View 32 v70,2013-08-26 13:50:00,
2013-08-26 09:55:00,68.0,61.9,30.09,WSW,247,1.0,7.0,81,0.00,,,0.00,Weather View 32 v70,2013-08-26 13:55:00,
2013-08-26 10:00:00,68.0,61.2,30.09,SW,225,3.0,7.0,79,0.00,,,0.00,Weather View 32 v70,2013-08-26 14:00:00,
2013-08-26 10:05:00,68.0,61.6,30.09,SW,225,2.0,7.0,80,0.00,,,0.00,Weather View 32 v70,2013-08-26 14:05:00,
2013-08-26 10:10:00,68.0,61.2,30.09,SW,225,0.0,7.0,79,0.00,,,0.00,Weather View 32 v70,2013-08-26 14:10:00,
2013-08-26 10:15:00,68.0,61.6,30.08,SW,225,2.0,7.0,80,0.00,,,0.00,Weather View 32 v70,2013-08-26 14:15:00,
2013-08-26 10:20:00,68.0,61.6,30.08,SW,225,2.0,7.0,80,0.00,,,0.00,Weather View 32 v70,2013-08-26 14:20:00,
2013-08-26 10:25:00,68.0,61.6,30.07,SW,225,0.0,7.0,80,0.00,,,0.00,Weather View 32 v70,2013-08-26 14:25:00,
2013-08-26 10:30:00,69.0,61.5,30.07,South,180,4.0,7.0,77,0.00,,,0.00,Weather View 32 v70,2013-08-26 14:30:00,
2013-08-26 10:35:00,69.0,61.1,30.07,WSW,247,2.0,7.0,76,0.00,,,0.00,Weather View 32 v70,2013-08-26 14:35:00,
2013-08-26 10:40:00,69.0,61.1,30.07,West,270,1.0,7.0,76,0.00,,,0.00,Weather View 32 v70,2013-08-26 14:40:00,
2013-08-26 10:45:00,69.0,61.1,30.07,East,90,1.0,7.0,76,0.00,,,0.00,Weather View 32 v70,2013-08-26 14:45:00,
2013-08-26 10:50:00,70.0,62.1,30.07,WSW,247,1.0,7.0,76,0.00,,,0.00,Weather View 32 v70,2013-08-26 14:50:00,
2013-08-26 10:55:00,70.0,62.1,30.07,SW,225,3.0,7.0,76,0.00,,,0.00,Weather View 32 v70,2013-08-26 14:55:00,
2013-08-26 11:00:00,70.0,62.4,30.07,WSW,247,1.0,7.0,77,0.00,,,0.00,Weather View 32 v70,2013-08-26 15:00:00,
2013-08-26 11:05:00,70.0,62.1,30.07,SW,225,3.0,7.0,76,0.00,,,0.00,Weather View 32 v70,2013-08-26 15:05:00,
2013-08-26 11:10:00,70.0,62.4,30.07,SW,225,3.0,7.0,77,0.00,,,0.00,Weather View 32 v70,2013-08-26 15:10:00,
2013-08-26 11:15:00,71.0,62.6,30.06,SW,225,2.0,7.0,75,0.00,,,0.00,Weather View 32 v70,2013-08-26 15:15:00,
2013-08-26 11:20:00,71.0,62.6,30.06,West,270,1.0,7.0,75,0.00,,,0.00,Weather View 32 v70,2013-08-26 15:20:00,
2013-08-26 11:25:00,71.0,63.0,30.05,SW,225,1.0,7.0,76,0.00,,,0.00,Weather View 32 v70,2013-08-26 15:25:00,
2013-08-26 11:30:00,71.0,62.6,30.05,SSW,202,0.0,6.0,75,0.00,,,0.00,Weather View 32 v70,2013-08-26 15:30:00,
2013-08-26 11:35:00,70.0,61.7,30.05,SW,225,0.0,6.0,75,0.00,,,0.00,Weather View 32 v70,2013-08-26 15:35:00,
2013-08-26 11:40:00,70.0,62.1,30.05,SW,225,0.0,6.0,76,0.00,,,0.00,Weather View 32 v70,2013-08-26 15:40:00,
2013-08-26 11:46:00,70.0,62.4,30.05,South,180,0.0,6.0,77,0.00,,,0.00,Weather View 32 v70,2013-08-26 15:46:00,
2013-08-26 11:51:00,70.0,62.8,30.05,South,180,1.0,6.0,78,0.00,,,0.00,Weather View 32 v70,2013-08-26 15:51:00,
2013-08-26 11:56:00,70.0,64.2,30.04,South,180,0.0,5.0,82,0.00,,,0.00,Weather View 32 v70,2013-08-26 15:56:00,
2013-08-26 12:01:00,69.0,65.3,30.04,South,180,0.0,5.0,88,0.00,,,0.00,Weather View 32 v70,2013-08-26 16:01:00,
2013-08-26 12:06:00,69.0,66.3,30.04,South,180,0.0,5.0,91,0.00,,,0.00,Weather View 32 v70,2013-08-26 16:06:00,
2013-08-26 12:11:00,70.0,67.2,30.04,South,180,0.0,5.0,91,0.00,,,0.00,Weather View 32 v70,2013-08-26 16:11:00,
2013-08-26 12:16:00,70.0,67.6,30.04,SSW,202,2.0,4.0,92,0.00,,,0.00,Weather View 32 v70,2013-08-26 16:16:00,
2013-08-26 12:21:00,70.0,65.9,30.04,SSW,202,1.0,6.0,87,0.00,,,0.00,Weather View 32 v70,2013-08-26 16:21:00,
2013-08-26 12:26:00,70.0,65.6,30.03,SW,225,2.0,6.0,86,0.00,,,0.00,Weather View 32 v70,2013-08-26 16:26:00,
2013-08-26 12:31:00,70.0,66.3,30.03,SW,225,1.0,6.0,88,0.00,,,0.00,Weather View 32 v70,2013-08-26 16:31:00,
2013-08-26 12:36:00,71.0,67.6,30.03,WNW,292,1.0,6.0,89,0.00,,,0.00,Weather View 32 v70,2013-08-26 16:36:00,
2013-08-26 12:41:00,71.0,65.6,30.03,WSW,247,0.0,6.0,83,0.00,,,0.00,Weather View 32 v70,2013-08-26 16:41:00,
2013-08-26 12:46:00,72.0,65.5,30.02,SW,225,0.0,6.0,80,0.00,,,0.00,Weather View 32 v70,2013-08-26 16:46:00,
2013-08-26 12:51:00,72.0,65.8,30.02,SW,225,0.0,6.0,81,0.00,,,0.00,Weather View 32 v70,2013-08-26 16:51:00,
2013-08-26 12:56:00,72.0,65.1,30.01,SW,225,1.0,6.0,79,0.00,,,0.00,Weather View 32 v70,2013-08-26 16:56:00,
2013-08-26 13:01:00,73.0,66.1,30.01,SW,225,3.0,6.0,79,0.00,,,0.00,Weather View 32 v70,2013-08-26 17:01:00,
2013-08-26 13:06:00,73.0,65.0,30.00,WSW,247,2.0,7.0,76,0.00,,,0.00,Weather View 32 v70,2013-08-26 17:06:00,
2013-08-26 13:11:00,73.0,65.0,30.00,SW,225,0.0,7.0,76,0.00,,,0.00,Weather View 32 v70,2013-08-26 17:11:00,
2013-08-26 13:16:00,74.0,65.2,29.99,West,270,3.0,7.0,74,0.00,,,0.00,Weather View 32 v70,2013-08-26 17:16:00,
2013-08-26 13:21:00,74.0,65.2,29.99,SW,225,5.0,7.0,74,0.00,,,0.00,Weather View 32 v70,2013-08-26 17:21:00,
2013-08-26 13:26:00,74.0,64.8,29.98,South,180,3.0,7.0,73,0.00,,,0.00,Weather View 32 v70,2013-08-26 17:26:00,
2013-08-26 13:31:00,74.0,64.4,29.98,SW,225,0.0,7.0,72,0.00,,,0.00,Weather View 32 v70,2013-08-26 17:31:00,
2013-08-26 13:36:00,75.0,65.7,29.97,South,180,4.0,7.0,73,0.00,,,0.00,Weather View 32 v70,2013-08-26 17:36:00,
2013-08-26 13:41:00,75.0,64.9,29.97,SW,225,3.0,7.0,71,0.00,,,0.00,Weather View 32 v70,2013-08-26 17:41:00,
2013-08-26 13:46:00,75.0,64.9,29.97,SW,225,5.0,7.0,71,0.00,,,0.00,Weather View 32 v70,2013-08-26 17:46:00,
2013-08-26 13:51:00,75.0,64.9,29.97,South,180,0.0,7.0,71,0.00,,,0.00,Weather View 32 v70,2013-08-26 17:51:00,
2013-08-26 13:56:00,75.0,64.9,29.97,SW,225,0.0,7.0,71,0.00,,,0.00,Weather View 32 v70,2013-08-26 17:56:00,
2013-08-26 14:01:00,75.0,64.9,29.97,SW,225,3.0,7.0,71,0.00,,,0.00,Weather View 32 v70,2013-08-26 18:01:00,
2013-08-26 14:06:00,75.0,64.9,29.97,WSW,247,3.0,7.0,71,0.00,,,0.00,Weather View 32 v70,2013-08-26 18:06:00,
2013-08-26 14:11:00,75.0,65.3,29.97,West,270,0.0,7.0,72,0.00,,,0.00,Weather View 32 v70,2013-08-26 18:11:00,
2013-08-26 14:16:00,75.0,65.7,29.96,SW,225,1.0,7.0,73,0.00,,,0.00,Weather View 32 v70,2013-08-26 18:16:00,
2013-08-26 14:21:00,75.0,66.1,29.96,SSW,202,2.0,7.0,74,0.00,,,0.00,Weather View 32 v70,2013-08-26 18:21:00,
2013-08-26 14:26:00,74.0,65.2,29.95,SSW,202,0.0,7.0,74,0.00,,,0.00,Weather View 32 v70,2013-08-26 18:26:00,
2013-08-26 14:31:00,74.0,65.5,29.95,SSW,202,2.0,7.0,75,0.00,,,0.00,Weather View 32 v70,2013-08-26 18:31:00,
2013-08-26 14:36:00,74.0,65.5,29.95,SSW,202,0.0,7.0,75,0.00,,,0.00,Weather View 32 v70,2013-08-26 18:36:00,
2013-08-26 14:41:00,74.0,65.9,29.95,SSW,202,1.0,7.0,76,0.00,,,0.00,Weather View 32 v70,2013-08-26 18:41:00,
2013-08-26 14:46:00,73.0,65.7,29.95,SSW,202,0.0,7.0,78,0.00,,,0.00,Weather View 32 v70,2013-08-26 18:46:00,
2013-08-26 14:51:00,74.0,67.0,29.95,SW,225,1.0,7.0,79,0.00,,,0.00,Weather View 32 v70,2013-08-26 18:51:00,
2013-08-26 14:56:00,74.0,66.7,29.95,SW,225,2.0,7.0,78,0.00,,,0.00,Weather View 32 v70,2013-08-26 18:56:00,
2013-08-26 15:01:00,74.0,66.7,29.95,SW,225,0.0,7.0,78,0.00,,,0.00,Weather View 32 v70,2013-08-26 19:01:00,
2013-08-26 15:06:00,74.0,66.7,29.94,SW,225,4.0,6.0,78,0.00,,,0.00,Weather View 32 v70,2013-08-26 19:06:00,
2013-08-26 15:11:00,74.0,66.3,29.94,SW,225,0.0,7.0,77,0.00,,,0.00,Weather View 32 v70,2013-08-26 19:11:00,
2013-08-26 15:16:00,74.0,66.7,29.95,SW,225,2.0,7.0,78,0.00,,,0.00,Weather View 32 v70,2013-08-26 19:16:00,
2013-08-26 15:21:00,73.0,66.4,29.95,SSW,202,2.0,7.0,80,0.00,,,0.00,Weather View 32 v70,2013-08-26 19:21:00,
2013-08-26 15:26:00,73.0,67.9,29.95,SSW,202,2.0,7.0,84,0.01,,,0.01,Weather View 32 v70,2013-08-26 19:26:00,
2013-08-26 15:31:00,72.0,67.9,29.95,SSW,202,2.0,7.0,87,0.01,,,0.01,Weather View 32 v70,2013-08-26 19:31:00,
2013-08-26 15:36:00,71.0,68.2,29.95,SSW,202,2.0,7.0,91,0.01,,,0.01,Weather View 32 v70,2013-08-26 19:36:00,
2013-08-26 15:41:00,71.0,68.2,29.95,WNW,292,2.0,7.0,91,0.03,,,0.03,Weather View 32 v70,2013-08-26 19:41:00,
2013-08-26 15:46:00,70.0,67.9,29.96,South,180,0.0,7.0,93,0.03,,,0.03,Weather View 32 v70,2013-08-26 19:46:00,
2013-08-26 15:51:00,70.0,68.2,29.96,SW,225,0.0,7.0,94,0.03,,,0.03,Weather View 32 v70,2013-08-26 19:51:00,
2013-08-26 15:56:00,69.0,67.8,29.96,West,270,0.0,7.0,96,0.03,,,0.03,Weather View 32 v70,2013-08-26 19:56:00,
2013-08-26 16:01:00,69.0,68.1,29.96,WSW,247,0.0,7.0,97,0.03,,,0.03,Weather View 32 v70,2013-08-26 20:01:00,
2013-08-26 16:06:00,69.0,68.4,29.96,SW,225,1.0,7.0,98,0.03,,,0.03,Weather View 32 v70,2013-08-26 20:06:00,
2013-08-26 16:11:00,69.0,68.7,29.96,SW,225,1.0,5.0,99,0.03,,,0.03,Weather View 32 v70,2013-08-26 20:11:00,
2013-08-26 16:16:00,69.0,68.7,29.95,NW,315,6.0,6.0,99,0.03,,,0.03,Weather View 32 v70,2013-08-26 20:16:00,
2013-08-26 16:21:00,69.0,69.0,29.95,WNW,292,2.0,8.0,100,0.03,,,0.03,Weather View 32 v70,2013-08-26 20:21:00,
2013-08-26 16:26:00,70.0,70.0,29.96,SW,225,1.0,8.0,100,0.02,,,0.03,Weather View 32 v70,2013-08-26 20:26:00,
2013-08-26 16:31:00,70.0,69.7,29.96,South,180,2.0,8.0,99,0.02,,,0.03,Weather View 32 v70,2013-08-26 20:31:00,
2013-08-26 16:36:00,70.0,69.7,29.96,NNW,337,1.0,8.0,99,0.02,,,0.03,Weather View 32 v70,2013-08-26 20:36:00,
2013-08-26 16:41:00,70.0,69.7,29.96,SW,225,0.0,8.0,99,0.00,,,0.03,Weather View 32 v70,2013-08-26 20:41:00,
2013-08-26 16:55:00,70.0,69.7,29.95,SW,225,0.0,8.0,99,0.00,,,0.03,Weather View 32 v70,2013-08-26 20:55:00,
2013-08-26 16:56:00,69.0,68.4,29.95,SW,225,0.0,8.0,98,0.00,,,0.03,Weather View 32 v70,2013-08-26 20:56:00,
2013-08-26 16:57:00,70.0,70.0,29.95,SW,225,0.0,8.0,100,0.00,,,0.03,Weather View 32 v70,2013-08-26 20:57:00,
2013-08-26 16:58:00,70.0,70.0,29.95,SW,225,0.0,8.0,100,0.00,,,0.03,Weather View 32 v70,2013-08-26 20:58:00,
2013-08-26 16:59:00,69.0,68.4,29.95,SW,225,0.0,8.0,98,0.00,,,0.03,Weather View 32 v70,2013-08-26 20:59:00,
2013-08-26 17:00:00,69.0,68.4,29.95,SW,225,0.0,8.0,98,0.00,,,0.03,Weather View 32 v70,2013-08-26 21:00:00,
2013-08-26 17:01:00,69.0,68.4,29.95,SW,225,0.0,8.0,98,0.00,,,0.03,Weather View 32 v70,2013-08-26 21:01:00,
2013-08-26 17:11:00,69.0,68.4,29.95,SW,225,0.0,8.0,98,0.00,,,0.03,Weather View 32 v70,2013-08-26 21:11:00,
2013-08-26 17:16:00,69.0,69.0,29.94,SW,225,2.0,8.0,100,0.00,,,0.03,Weather View 32 v70,2013-08-26 21:16:00,
2013-08-26 17:21:00,69.0,69.0,29.94,SW,225,2.0,6.0,100,0.00,,,0.03,Weather View 32 v70,2013-08-26 21:21:00,
2013-08-26 17:27:00,69.0,69.0,29.94,SW,225,0.0,3.0,100,0.00,,,0.03,Weather View 32 v70,2013-08-26 21:27:00,
2013-08-26 17:32:00,69.0,69.0,29.94,SW,225,0.0,3.0,100,0.00,,,0.03,Weather View 32 v70,2013-08-26 21:32:00,
2013-08-26 17:37:00,69.0,69.0,29.95,SW,225,1.0,3.0,100,0.00,,,0.03,Weather View 32 v70,2013-08-26 21:37:00,
2013-08-26 17:42:00,69.0,69.0,29.95,SW,225,0.0,3.0,100,-0.03,,,0.03,Weather View 32 v70,2013-08-26 21:42:00,
2013-08-26 17:47:00,69.0,69.0,29.95,SW,225,1.0,3.0,100,-0.03,,,0.03,Weather View 32 v70,2013-08-26 21:47:00,
2013-08-26 17:52:00,69.0,69.0,29.95,SW,225,0.0,3.0,100,0.00,,,0.03,Weather View 32 v70,2013-08-26 21:52:00,
2013-08-26 17:57:00,69.0,69.0,29.95,SW,225,0.0,3.0,100,0.00,,,0.03,Weather View 32 v70,2013-08-26 21:57:00,
2013-08-26 18:02:00,69.0,69.0,29.95,SW,225,0.0,3.0,100,0.01,,,0.04,Weather View 32 v70,2013-08-26 22:02:00,
2013-08-26 18:07:00,69.0,69.0,29.94,SW,225,2.0,3.0,100,0.01,,,0.04,Weather View 32 v70,2013-08-26 22:07:00,
2013-08-26 18:12:00,69.0,69.0,29.94,SW,225,0.0,3.0,100,0.01,,,0.04,Weather View 32 v70,2013-08-26 22:12:00,
2013-08-26 18:17:00,69.0,69.0,29.94,SW,225,1.0,3.0,100,0.01,,,0.04,Weather View 32 v70,2013-08-26 22:17:00,
2013-08-26 18:22:00,69.0,69.0,29.94,SW,225,1.0,3.0,100,0.01,,,0.04,Weather View 32 v70,2013-08-26 22:22:00,
2013-08-26 18:27:00,69.0,69.0,29.93,SW,225,0.0,3.0,100,0.01,,,0.04,Weather View 32 v70,2013-08-26 22:27:00,
2013-08-26 18:32:00,69.0,69.0,29.93,SW,225,1.0,3.0,100,0.01,,,0.04,Weather View 32 v70,2013-08-26 22:32:00,
2013-08-26 18:37:00,69.0,69.0,29.93,SW,225,0.0,3.0,100,0.01,,,0.04,Weather View 32 v70,2013-08-26 22:37:00,
2013-08-26 18:42:00,69.0,69.0,29.93,SW,225,0.0,3.0,100,0.01,,,0.04,Weather View 32 v70,2013-08-26 22:42:00,
2013-08-26 18:47:00,69.0,69.0,29.92,SW,225,0.0,3.0,100,0.01,,,0.04,Weather View 32 v70,2013-08-26 22:47:00,
2013-08-26 18:52:00,69.0,69.0,29.92,SW,225,0.0,3.0,100,0.01,,,0.04,Weather View 32 v70,2013-08-26 22:52:00,
2013-08-26 18:57:00,69.0,69.0,29.93,SW,225,0.0,3.0,100,0.01,,,0.04,Weather View 32 v70,2013-08-26 22:57:00,
2013-08-26 19:02:00,69.0,69.0,29.93,SW,225,0.0,3.0,100,0.00,,,0.04,Weather View 32 v70,2013-08-26 23:02:00,
2013-08-26 19:07:00,68.0,68.0,29.93,SW,225,0.0,3.0,100,0.00,,,0.04,Weather View 32 v70,2013-08-26 23:07:00,
2013-08-26 19:12:00,68.0,68.0,29.93,SW,225,0.0,2.0,100,0.00,,,0.04,Weather View 32 v70,2013-08-26 23:12:00,
2013-08-26 19:18:00,68.0,68.0,29.93,SW,225,0.0,2.0,100,0.00,,,0.04,Weather View 32 v70,2013-08-26 23:18:00,
2013-08-26 19:23:00,68.0,68.0,29.93,SW,225,0.0,2.0,100,0.00,,,0.04,Weather View 32 v70,2013-08-26 23:23:00,
2013-08-26 19:28:00,68.0,68.0,29.93,SW,225,0.0,3.0,100,0.00,,,0.04,Weather View 32 v70,2013-08-26 23:28:00,
2013-08-26 19:33:00,68.0,68.0,29.93,South,180,0.0,3.0,100,0.00,,,0.04,Weather View 32 v70,2013-08-26 23:33:00,
2013-08-26 19:38:00,68.0,68.0,29.93,South,180,0.0,3.0,100,0.00,,,0.04,Weather View 32 v70,2013-08-26 23:38:00,
2013-08-26 19:43:00,68.0,68.0,29.93,South,180,0.0,3.0,100,0.00,,,0.04,Weather View 32 v70,2013-08-26 23:43:00,
2013-08-26 19:48:00,68.0,68.0,29.93,South,180,0.0,3.0,100,0.00,,,0.04,Weather View 32 v70,2013-08-26 23:48:00,
2013-08-26 19:53:00,68.0,68.0,29.93,South,180,0.0,3.0,100,0.00,,,0.04,Weather View 32 v70,2013-08-26 23:53:00,
2013-08-26 19:58:00,69.0,69.0,29.93,South,180,0.0,3.0,100,0.00,,,0.04,Weather View 32 v70,2013-08-26 23:58:00,
2013-08-26 20:03:00,69.0,69.0,29.93,South,180,0.0,3.0,100,0.00,,,0.04,Weather View 32 v70,2013-08-27 00:03:00,
2013-08-26 20:08:00,69.0,69.0,29.93,South,180,0.0,3.0,100,0.00,,,0.04,Weather View 32 v70,2013-08-27 00:08:00,
2013-08-26 20:13:00,69.0,69.0,29.93,South,180,0.0,3.0,100,0.00,,,0.04,Weather View 32 v70,2013-08-27 00:13:00,
2013-08-26 20:18:00,69.0,69.0,29.92,South,180,2.0,3.0,100,0.00,,,0.04,Weather View 32 v70,2013-08-27 00:18:00,
2013-08-26 20:23:00,69.0,69.0,29.92,South,180,2.0,3.0,100,0.00,,,0.04,Weather View 32 v70,2013-08-27 00:23:00,
2013-08-26 20:28:00,69.0,69.0,29.92,South,180,1.0,3.0,100,0.00,,,0.04,Weather View 32 v70,2013-08-27 00:28:00,
2013-08-26 20:33:00,68.0,68.0,29.92,South,180,0.0,3.0,100,0.00,,,0.04,Weather View 32 v70,2013-08-27 00:33:00,
2013-08-26 20:38:00,68.0,68.0,29.92,South,180,0.0,3.0,100,0.00,,,0.04,Weather View 32 v70,2013-08-27 00:38:00,
2013-08-26 20:43:00,68.0,68.0,29.92,South,180,0.0,3.0,100,0.00,,,0.04,Weather View 32 v70,2013-08-27 00:43:00,
2013-08-26 20:48:00,68.0,68.0,29.93,South,180,0.0,3.0,100,0.00,,,0.04,Weather View 32 v70,2013-08-27 00:48:00,
2013-08-26 20:53:00,68.0,68.0,29.93,South,180,0.0,3.0,100,0.00,,,0.04,Weather View 32 v70,2013-08-27 00:53:00,
2013-08-26 20:58:00,68.0,68.0,29.93,West,270,1.0,4.0,100,0.03,,,0.07,Weather View 32 v70,2013-08-27 00:58:00,
2013-08-26 21:03:00,68.0,68.0,29.93,WNW,292,0.0,7.0,100,0.13,,,0.17,Weather View 32 v70,2013-08-27 01:03:00,
2013-08-26 21:08:00,68.0,68.0,29.93,WNW,292,2.0,7.0,100,0.16,,,0.20,Weather View 32 v70,2013-08-27 01:08:00,
2013-08-26 21:13:00,68.0,68.0,29.93,West,270,0.0,7.0,100,0.17,,,0.22,Weather View 32 v70,2013-08-27 01:13:00,
2013-08-26 21:18:00,68.0,68.0,29.94,West,270,0.0,7.0,100,0.19,,,0.23,Weather View 32 v70,2013-08-27 01:18:00,
2013-08-26 21:23:00,68.0,68.0,29.94,West,270,0.0,7.0,100,0.20,,,0.24,Weather View 32 v70,2013-08-27 01:23:00,
2013-08-26 21:28:00,68.0,68.0,29.93,NE,45,3.0,7.0,100,0.21,,,0.25,Weather View 32 v70,2013-08-27 01:28:00,
2013-08-26 21:33:00,68.0,68.0,29.93,SE,135,0.0,7.0,100,0.22,,,0.26,Weather View 32 v70,2013-08-27 01:33:00,
2013-08-26 21:38:00,68.0,68.0,29.93,SE,135,0.0,7.0,100,0.23,,,0.27,Weather View 32 v70,2013-08-27 01:38:00,
2013-08-26 21:43:00,68.0,68.0,29.93,SE,135,0.0,7.0,100,0.24,,,0.28,Weather View 32 v70,2013-08-27 01:43:00,
2013-08-26 21:48:00,68.0,68.0,29.93,SE,135,0.0,7.0,100,0.24,,,0.28,Weather View 32 v70,2013-08-27 01:48:00,
2013-08-26 21:53:00,68.0,68.0,29.93,WNW,292,0.0,7.0,100,0.25,,,0.29,Weather View 32 v70,2013-08-27 01:53:00,
2013-08-26 21:58:00,68.0,68.0,29.94,South,180,0.0,7.0,100,0.30,,,0.38,Weather View 32 v70,2013-08-27 01:58:00,
2013-08-26 22:03:00,68.0,68.0,29.94,South,180,0.0,6.0,100,0.25,,,0.43,Weather View 32 v70,2013-08-27 02:03:00,
2013-08-26 22:08:00,68.0,68.0,29.93,South,180,0.0,6.0,100,0.24,,,0.44,Weather View 32 v70,2013-08-27 02:08:00,
2013-08-26 22:13:00,68.0,68.0,29.93,South,180,0.0,6.0,100,0.24,,,0.45,Weather View 32 v70,2013-08-27 02:13:00,
2013-08-26 22:18:00,68.0,68.0,29.91,South,180,0.0,6.0,100,0.22,,,0.45,Weather View 32 v70,2013-08-27 02:18:00,
2013-08-26 22:23:00,68.0,68.0,29.91,South,180,0.0,6.0,100,0.22,,,0.46,Weather View 32 v70,2013-08-27 02:23:00,
2013-08-26 22:29:00,68.0,68.0,29.93,South,180,0.0,6.0,100,0.21,,,0.46,Weather View 32 v70,2013-08-27 02:29:00,
2013-08-26 22:34:00,68.0,68.0,29.93,South,180,0.0,2.0,100,0.21,,,0.47,Weather View 32 v70,2013-08-27 02:34:00,
2013-08-26 22:39:00,68.0,68.0,29.92,South,180,0.0,2.0,100,0.20,,,0.47,Weather View 32 v70,2013-08-27 02:39:00,
2013-08-26 22:44:00,68.0,68.0,29.92,South,180,0.0,2.0,100,-0.28,,,0.48,Weather View 32 v70,2013-08-27 02:44:00,
2013-08-26 22:49:00,68.0,68.0,29.92,South,180,0.0,2.0,100,0.20,,,0.48,Weather View 32 v70,2013-08-27 02:49:00,
2013-08-26 22:55:00,68.0,68.0,29.91,South,180,0.0,2.0,100,0.19,,,0.49,Weather View 32 v70,2013-08-27 02:55:00,
2013-08-26 23:00:00,68.0,68.0,29.91,South,180,0.0,2.0,100,0.10,,,0.49,Weather View 32 v70,2013-08-27 03:00:00,
2013-08-26 23:05:00,68.0,68.0,29.91,South,180,0.0,0.0,100,0.06,,,0.49,Weather View 32 v70,2013-08-27 03:05:00,
2013-08-26 23:10:00,68.0,68.0,29.91,South,180,0.0,0.0,100,0.05,,,0.49,Weather View 32 v70,2013-08-27 03:10:00,
2013-08-26 23:15:00,68.0,68.0,29.91,South,180,0.0,0.0,100,0.05,,,0.50,Weather View 32 v70,2013-08-27 03:15:00,
2013-08-26 23:20:00,68.0,68.0,29.91,South,180,0.0,0.0,100,0.04,,,0.50,Weather View 32 v70,2013-08-27 03:20:00,
2013-08-26 23:25:00,68.0,68.0,29.91,South,180,0.0,0.0,100,0.04,,,0.50,Weather View 32 v70,2013-08-27 03:25:00,
2013-08-26 23:30:00,68.0,68.0,29.91,South,180,0.0,0.0,100,0.03,,,0.50,Weather View 32 v70,2013-08-27 03:30:00,
2013-08-26 23:35:00,68.0,68.0,29.90,South,180,0.0,0.0,100,0.03,,,0.50,Weather View 32 v70,2013-08-27 03:35:00,
2013-08-26 23:40:00,68.0,68.0,29.90,South,180,0.0,0.0,100,0.02,,,0.50,Weather View 32 v70,2013-08-27 03:40:00,
2013-08-26 23:45:00,68.0,68.0,29.90,South,180,0.0,0.0,100,0.02,,,0.50,Weather View 32 v70,2013-08-27 03:45:00,
2013-08-26 23:50:00,68.0,68.0,29.90,South,180,0.0,0.0,100,0.02,,,0.50,Weather View 32 v70,2013-08-27 03:50:00,
2013-08-26 23:55:00,68.0,68.0,29.91,South,180,0.0,0.0,100,0.07,,,0.57,Weather View 32 v70,2013-08-27 03:55:00,